Theta_e
356 354 354 354 355 353 355 354 354 355 354 354 353 354 355 356 355 355 357 355 355 356 355 355 355 357 356 358 360 360 359 359 358 359 359 358 357 358 357 358 357 356 356 356 359 358 355 353 353 355 356 356 355 352 355 355 354 350 348 346 345 345 346 343 339 341 343 348 350 350 353 353 350 349 349 349 350 352 354 353 353 351 350 348 348
356 356 355 355 354 354 354 355 355 354 353 353 353 352 353 355 354 355 355 355 355 354 355 355 356 358 357 356 358 359 359 358 358 358 359 358 356 360 358 357 356 356 354 355 356 359 356 352 353 356 357 358 356 356 352 352 352 349 347 347 344 345 348 345 341 339 338 344 346 348 348 353 348 349 347 348 349 353 352 352 352 350 350 351 350
356 356 356 354 353 354 354 354 354 353 353 352 353 353 353 354 354 354 354 354 355 354 354 355 355 356 356 355 356 357 357 357 358 358 359 358 356 359 360 358 356 355 355 356 357 357 356 354 353 354 357 354 354 353 355 351 350 349 347 347 345 344 347 346 341 339 340 342 345 346 346 347 347 347 349 351 353 353 350 349 349 352 353 352 353
356 355 355 355 354 354 353 353 353 353 353 352 352 353 353 352 354 353 354 354 353 354 354 354 354 354 354 354 354 354 356 356 357 357 358 359 358 358 359 358 357 357 357 357 358 358 356 353 354 354 354 352 351 351 351 349 348 347 347 347 346 345 345 346 345 342 342 340 340 344 346 344 345 348 351 353 352 350 348 349 351 352 353 355 355
354 355 354 354 353 353 353 353 353 352 352 352 350 351 351 351 352 353 353 352 353 353 353 354 354 354 354 354 353 353 355 356 356 357 358 359 359 359 359 358 358 357 358 358 364 358 356 354 353 353 351 349 349 348 349 349 348 344 343 344 345 346 346 347 346 346 343 342 342 341 344 344 347 349 349 347 346 347 348 349 351 351 353 355 357
353 354 353 353 352 351 352 352 352 352 352 352 351 350 350 350 350 352 353 351 351 352 352 353 354 354 354 354 354 355 355 356 357 357 357 358 359 359 359 358 358 358 358 358 357 358 356 354 354 353 352 350 350 349 347 347 346 346 344 343 345 346 346 347 347 346 345 344 341 342 340 343 342 343 344 346 348 348 348 350 350 352 353 354 356
351 352 352 352 351 350 351 351 352 352 352 352 352 351 349 349 349 351 353 351 350 350 352 352 353 354 355 350 344 346 346 347 348 350 353 357 358 358 358 358 357 357 357 357 356 356 357 356 354 353 351 350 348 347 346 343 343 342 344 343 342 347 346 344 347 346 345 341 340 340 340 343 343 342 345 347 348 348 346 349 350 351 352 352 353
345 348 351 351 350 349 350 351 350 351 351 352 351 351 350 349 348 350 352 351 349 349 349 352 352 351 350 349 347 348 347 346 345 346 345 348 353 356 357 357 357 356 356 355 356 356 356 356 355 353 352 351 350 349 349 347 344 342 342 348 349 345 343 345 345 343 342 342 340 342 340 340 343 343 347 346 346 345 346 348 348 349 351 352 353
345 342 341 341 344 347 349 349 350 352 353 351 350 349 347 346 346 346 350 351 351 351 351 350 351 352 350 350 349 350 349 348 348 347 346 345 347 352 355 355 354 352 351 353 353 354 353 352 353 351 353 364 367 363 357 354 345 342 342 346 346 343 341 344 344 344 343 343 343 341 340 340 340 340 342 342 343 345 347 348 349 351 351 351 352
347 346 344 342 343 343 347 351 352 353 352 352 353 356 358 357 354 351 348 349 349 349 349 350 349 347 349 349 350 351 350 350 350 353 353 350 347 350 352 354 353 350 350 349 349 351 352 352 353 363 364 366 369 370 366 362 358 350 344 346 346 344 343 343 344 343 342 339 339 339 339 339 339 341 342 344 348 349 351 351 349 351 349 348 348
347 346 346 345 345 343 344 344 344 344 350 350 350 351 353 355 353 349 348 349 349 350 347 346 346 348 349 348 348 349 351 351 351 339 340 347 354 352 351 353 352 350 349 349 349 350 351 351 350 357 366 368 364 370 368 364 364 363 361 361 357 348 346 345 343 342 341 340 338 338 339 339 341 343 344 347 350 351 351 351 350 348 345 343 341
346 347 347 347 348 348 347 347 346 346 345 344 346 348 351 350 350 349 347 347 347 348 347 346 347 348 349 347 347 349 349 353 336 332 334 335 344 353 353 348 353 350 350 350 349 349 348 350 349 355 364 362 359 357 363 371 367 367 366 365 365 364 358 348 343 340 339 339 339 340 339 340 342 343 345 346 349 350 351 350 348 345 344 342 342
347 347 347 347 346 346 347 345 346 346 346 347 347 347 350 350 349 350 349 349 347 345 346 347 346 347 347 346 347 349 345 332 327 330 330 331 335 352 351 351 349 351 351 349 349 349 348 349 352 349 349 360 352 348 350 355 368 364 366 367 366 362 348 348 350 348 344 342 341 341 343 342 342 344 349 351 350 350 348 346 345 344 344 343 343
343 343 343 344 344 345 346 345 344 345 346 346 345 344 345 350 352 352 351 349 347 348 348 346 347 347 347 346 347 343 336 328 325 327 328 329 332 342 346 348 350 349 346 346 349 349 351 351 348 344 340 340 341 344 346 350 353 355 354 353 352 361 365 349 345 346 351 349 346 346 347 346 346 348 355 353 351 347 345 344 344 343 343 344 346
339 340 340 341 341 341 342 343 343 343 344 345 345 344 344 343 349 350 350 347 346 346 347 347 349 351 352 349 342 337 330 321 321 324 323 325 328 343 346 349 349 348 349 354 356 358 355 352 345 340 337 336 340 345 346 347 350 353 351 352 352 353 353 357 358 356 352 352 350 349 350 351 352 353 354 352 349 348 348 347 346 346 347 348 348
338 339 338 338 338 339 339 339 340 341 342 343 343 342 343 342 343 347 349 347 346 347 347 347 347 349 350 345 341 335 325 318 318 319 320 322 334 352 348 346 346 348 354 356 356 355 354 346 340 337 335 336 338 335 346 350 349 347 347 348 348 350 353 357 339 348 353 350 351 352 353 352 346 347 346 344 341 341 344 345 345 342 340 339 341
336 336 337 338 338 338 338 338 339 339 339 340 341 341 341 342 343 347 346 344 344 344 344 346 347 348 349 344 336 328 325 319 315 315 316 319 339 349 350 350 350 352 353 355 355 356 351 343 339 336 335 335 332 323 333 354 344 344 343 343 344 346 348 344 340 337 335 334 332 333 332 330 329 327 325 326 331 334 338 338 339 342 342 338 339
335 335 335 337 337 338 337 337 337 338 338 338 339 341 342 343 343 347 344 345 344 345 345 345 345 346 347 338 331 327 325 322 314 313 314 317 335 348 352 353 351 352 352 352 352 352 352 354 345 337 334 332 323 322 328 345 340 339 339 338 340 341 342 337 339 342 340 339 339 336 335 333 333 333 335 334 330 335 338 338 341 341 340 338 334
333 334 335 337 337 337 338 338 338 337 336 337 338 338 338 341 344 343 342 343 343 343 345 343 343 343 340 338 339 329 327 326 314 312 312 315 332 344 350 351 349 350 351 349 348 349 350 351 348 340 335 332 318 320 326 339 336 336 336 336 337 338 336 333 336 340 342 343 343 346 347 348 350 346 346 341 339 346 343 343 343 340 334 334 335
329 333 334 335 337 339 339 338 337 336 334 335 336 336 339 340 341 344 344 343 342 342 344 342 342 338 334 332 331 329 327 325 321 311 311 312 319 346 346 349 350 350 350 347 343 341 339 337 337 329 323 319 316 316 319 324 331 332 333 334 333 334 334 332 337 339 338 340 340 344 346 347 346 340 338 339 341 343 340 341 340 338 335 333 336
326 327 327 325 326 329 333 336 336 336 337 335 338 339 337 336 339 342 341 342 342 341 338 336 333 332 333 333 332 330 328 325 324 312 311 311 314 325 334 334 337 344 348 350 344 340 340 339 338 329 319 318 316 314 313 316 327 332 331 329 333 334 331 331 336 344 336 339 342 345 345 340 337 337 335 333 334 336 337 337 338 338 337 337 336
327 326 325 326 326 326 328 334 339 339 340 339 336 336 338 341 341 340 340 339 337 335 333 332 329 328 329 330 330 329 331 330 327 318 313 311 312 314 325 327 331 340 342 343 342 340 341 342 340 333 319 319 316 312 309 312 318 328 331 323 320 322 330 334 333 334 336 340 340 340 334 330 328 329 331 331 332 336 335 335 336 337 338 338 336
329 328 327 325 326 325 325 325 327 330 334 337 337 338 339 338 338 339 338 337 335 332 331 330 327 325 325 326 327 328 328 330 328 327 317 313 311 312 313 322 324 335 332 331 333 334 335 335 338 332 317 312 308 308 308 310 318 322 317 314 316 319 330 333 334 334 333 335 337 331 327 326 326 326 328 328 330 333 333 334 333 334 333 333 334
325 324 326 323 323 324 324 326 325 326 329 329 329 327 326 325 325 329 335 337 334 332 330 328 325 324 323 323 325 326 326 327 328 327 326 317 314 313 313 314 319 332 335 334 334 332 330 328 330 317 309 305 305 307 309 315 322 314 312 313 317 324 331 333 332 333 337 333 328 324 324 325 325 325 328 330 331 330 331 331 329 329 327 328 328
327 320 317 319 323 322 321 322 323 326 326 325 325 324 322 321 318 319 322 324 333 334 333 329 323 323 323 322 322 324 325 323 321 324 326 327 318 315 317 321 322 323 333 330 332 327 319 312 310 310 312 311 311 311 312 315 310 308 308 312 329 332 331 332 334 337 330 326 324 324 325 326 327 328 329 328 329 328 328 327 327 327 327 328 330
324 321 318 320 321 321 318 318 319 321 324 324 322 320 319 319 318 316 317 319 323 326 333 331 327 325 323 324 324 320 318 317 316 317 321 322 321 318 318 320 329 329 328 322 321 319 316 314 315 318 320 323 329 330 331 332 326 321 318 321 330 332 333 334 336 328 324 324 326 324 324 325 325 327 329 328 326 325 325 325 323 325 326 327 326
326 321 316 318 320 318 317 316 316 319 319 320 320 319 317 315 315 318 316 316 319 324 326 329 329 329 326 321 320 319 317 315 314 314 314 313 313 314 317 318 321 322 322 319 319 319 324 328 327 320 319 321 323 326 327 331 333 333 333 334 334 334 338 332 326 326 326 324 324 323 324 325 327 326 325 325 324 324 325 327 324 324 326 325 321
318 317 319 323 325 325 325 327 320 316 318 318 317 316 314 314 313 314 314 316 318 319 322 323 321 321 320 319 317 317 315 314 313 310 311 310 310 310 314 314 312 314 315 313 313 318 323 328 324 329 329 329 328 330 330 332 334 332 332 335 338 339 335 336 334 326 324 323 322 323 323 323 322 323 323 323 323 324 325 325 325 323 324 321 318
319 316 317 320 323 325 321 318 316 315 315 314 313 313 313 314 313 314 315 314 316 317 320 320 321 319 319 318 317 314 315 315 315 307 308 304 304 305 308 307 307 311 313 309 313 319 320 321 323 324 324 325 325 326 328 331 333 331 328 325 324 323 324 322 322 321 321 320 319 319 319 319 320 322 322 320 321 323 322 322 322 321 320 319 317
315 315 317 317 319 321 322 320 318 317 314 313 313 313 312 302 306 315 314 312 303 297 303 316 317 315 313 313 315 316 314 314 303 298 296 295 296 296 297 295 296 303 306 305 312 314 315 317 320 320 322 320 321 323 328 330 326 324 325 325 325 323 323 323 322 321 321 320 319 317 317 319 318 320 319 319 320 320 319 320 318 319 317 316 315
317 315 318 318 320 319 319 318 318 318 314 313 314 315 312 312 298 299 308 308 300 294 294 296 302 311 320 311 310 304 303 299 296 295 294 294 293 293 293 293 293 294 297 308 313 312 314 317 318 319 321 320 322 321 322 322 323 322 322 322 323 323 323 321 320 320 320 319 318 318 318 317 317 318 317 319 321 320 318 318 318 317 315 315 313
315 317 319 321 324 322 319 320 320 319 318 316 314 315 313 312 313 301 296 301 297 294 294 294 294 298 304 311 317 314 307 298 295 294 294 294 293 293 292 292 292 293 295 299 312 312 315 315 317 319 321 320 321 323 321 321 321 322 322 322 320 321 320 319 318 317 317 317 316 317 316 316 317 317 317 317 318 317 316 316 315 315 315 314 315
315 316 320 321 324 326 325 322 322 320 319 319 320 317 314 314 312 313 311 297 295 294 294 294 294 294 294 293 293 298 301 299 296 294 293 292 292 292 292 292 292 293 296 309 312 312 314 316 318 319 319 318 319 319 320 320 319 320 320 319 318 317 318 318 317 318 318 316 316 315 315 316 316 316 316 316 315 313 313 313 313 313 312 311 313
314 316 318 320 319 318 318 319 319 317 316 316 318 319 322 320 317 315 314 314 314 305 300 296 293 297 296 295 294 293 292 293 293 293 293 293 291 291 290 297 297 294 301 311 310 314 315 317 318 317 317 319 318 318 318 318 320 319 319 318 317 317 316 316 316 316 315 315 314 314 314 313 313 312 311 311 311 311 310 311 310 310 308 308 308
311 322 323 325 312 313 314 316 316 317 319 319 317 319 321 322 323 322 316 315 313 313 313 314 303 294 300 300 298 294 294 293 294 294 295 295 296 294 302 312 314 314 314 314 317 316 316 315 315 315 315 315 316 316 315 315 315 315 315 315 315 315 315 315 314 314 313 312 312 312 312 311 311 311 310 309 308 308 308 309 308 308 307 308 309
313 313 313 320 318 313 313 311 310 311 310 311 318 322 323 324 324 323 321 322 320 316 316 313 313 310 303 297 296 297 297 295 294 295 293 294 293 302 312 310 312 314 315 315 315 317 317 316 315 314 313 313 313 313 313 313 313 313 312 312 312 312 312 312 312 311 311 311 311 312 310 310 310 309 309 309 308 308 308 309 308 309 309 308 309
314 313 312 312 314 314 314 314 312 312 319 318 315 316 321 321 321 321 323 321 323 320 315 313 312 314 314 319 319 308 304 301 300 299 298 298 301 312 311 310 309 311 313 312 312 312 311 311 312 311 311 311 311 310 311 310 310 312 314 311 311 311 311 311 311 312 309 309 308 309 308 308 308 308 308 307 307 307 308 308 307 307 308 308 308
312 311 309 310 311 311 312 314 316 321 319 318 316 316 320 318 315 319 320 319 323 319 314 313 316 312 312 314 320 318 315 306 304 303 304 304 308 309 310 312 310 308 308 309 311 309 308 308 308 308 309 309 308 308 308 308 309 309 309 309 310 311 312 310 310 308 308 306 306 306 306 306 306 306 307 305 304 304 305 306 304 303 304 306 305
310 316 316 319 318 309 310 316 319 318 317 317 316 319 320 318 316 314 311 313 316 317 318 315 314 313 311 311 309 316 314 310 309 309 310 309 309 309 308 308 308 307 307 306 308 308 305 305 307 307 307 307 308 307 306 306 307 307 307 307 306 306 306 305 305 305 305 303 303 303 303 303 303 304 305 304 303 303 303 303 303 303 302 302 302
312 309 312 319 315 315 316 317 317 316 321 315 312 314 318 316 313 312 312 313 312 312 311 310 309 308 310 310 310 309 311 309 310 309 307 306 307 306 306 306 306 305 305 305 305 304 304 304 304 304 304 304 305 305 305 305 306 306 306 306 304 303 303 303 303 303 302 302 302 302 302 302 303 303 303 303 303 302 302 302 302 302 302 302 302
310 309 316 317 316 313 317 317 314 315 313 315 312 312 314 315 314 314 311 313 313 312 310 308 306 307 308 304 299 299 309 308 308 308 308 306 305 304 304 304 305 304 304 305 304 304 303 302 302 303 303 303 303 303 303 304 304 303 302 303 302 302 300 299 298 299 299 300 300 300 301 301 302 301 301 302 302 301 301 301 301 301 301 301 301
314 311 312 312 313 314 313 314 315 313 314 315 311 313 315 314 312 312 314 314 314 311 308 306 304 307 304 301 298 299 307 308 308 307 306 305 304 304 305 304 304 304 303 303 303 303 303 303 303 302 301 301 302 302 302 301 301 299 299 299 299 299 298 296 297 297 297 297 298 298 299 299 299 299 300 301 300 299 299 299 299 299 298 298 299
317 316 315 315 312 313 313 315 317 312 312 313 315 317 315 311 309 310 311 312 312 310 307 306 306 308 307 304 303 304 306 306 308 305 304 304 303 304 303 303 303 303 303 303 302 302 302 302 302 302 302 301 301 301 299 298 299 298 298 298 297 296 295 295 295 296 296 296 297 298 298 298 298 296 297 299 298 298 297 297 298 297 297 296 297
314 315 318 317 316 314 318 315 315 315 312 314 314 313 313 310 310 310 308 308 309 309 308 306 307 306 307 304 303 303 303 302 302 302 303 304 302 302 301 301 302 301 301 301 301 301 301 301 300 300 300 300 300 299 298 297 297 296 296 297 298 296 293 294 294 294 295 295 296 296 296 297 297 296 297 298 296 296 296 297 297 296 297 296 296
314 313 312 313 314 312 312 313 314 314 316 313 308 309 314 308 308 308 308 307 308 306 305 306 306 305 303 300 301 301 301 302 304 303 301 301 300 300 300 300 300 300 300 300 300 300 299 299 299 299 299 299 298 297 296 296 296 295 295 295 293 293 292 292 293 295 297 296 295 295 296 296 295 294 295 295 297 295 296 295 296 297 297 296 296
311 312 312 311 312 312 312 310 314 312 311 308 306 306 306 305 306 308 306 306 305 304 303 304 305 304 303 300 301 302 300 300 300 301 301 300 300 299 299 298 299 299 299 299 299 299 300 300 299 299 299 298 297 295 294 295 294 294 294 294 294 293 293 294 295 296 295 295 295 294 294 294 293 294 296 295 294 295 294 295 296 297 296 297 297
310 311 312 311 308 309 309 312 312 310 307 306 306 305 303 303 305 308 309 307 304 304 302 300 299 299 299 298 299 299 300 299 299 299 298 298 298 297 297 297 298 297 297 298 299 298 299 299 299 299 300 299 297 295 293 293 293 294 296 294 294 294 294 294 294 294 294 295 294 293 292 293 293 293 294 295 295 294 296 296 296 296 297 297 297
309 309 309 308 307 307 308 310 311 312 308 308 307 306 305 304 302 302 301 302 301 300 298 298 297 298 300 300 300 299 299 298 299 299 298 297 297 297 297 297 297 296 297 296 297 298 298 298 298 298 299 299 299 295 294 293 294 294 294 294 294 294 294 294 293 293 292 292 292 292 291 291 291 292 293 293 293 294 294 294 295 296 297 298 298
306 307 307 307 308 308 308 308 309 307 306 307 307 306 305 302 302 301 300 299 298 297 296 297 296 297 298 298 299 298 298 298 294 294 295 295 296 296 296 297 298 297 296 295 296 296 297 297 299 299 298 298 298 297 295 295 294 293 293 292 293 293 291 292 292 291 291 291 290 290 290 290 290 292 293 293 293 293 294 294 295 297 298 299 299
306 308 307 307 307 306 307 305 305 304 304 304 302 302 302 302 301 301 299 298 297 297 296 296 296 295 296 297 298 296 296 295 294 294 294 294 295 295 296 296 295 295 295 295 296 296 296 297 297 298 299 299 298 298 296 295 294 293 292 292 291 289 289 291 292 292 290 288 289 289 289 290 290 291 291 291 292 292 293 295 297 298 298 298 298
306 306 307 306 305 306 305 302 302 301 300 300 299 298 297 296 296 297 296 295 295 295 295 293 294 295 295 296 298 295 295 294 294 293 293 293 294 294 295 295 296 295 295 295 295 295 296 297 297 298 298 298 298 297 295 294 293 293 292 292 289 287 287 288 289 288 289 290 289 290 291 291 291 290 291 292 292 293 296 297 297 297 297 298 298
Wind_Speed
10 9 9 8 8 8 8 7 7 6 6 6 7 7 7 7 7 7 6 6 6 6 6 6 6 7 6 6 6 6 5 5 5 4 4 4 4 4 3 4 4 3 3 4 3 2 3 4 4 5 3 3 4 4 3 3 2 3 3 3 4 3 4 3 3 5 5 2 2 3 5 3 4 3 5 6 7 7 8 6 5 5 5 5 6
10 9 9 9 8 8 8 7 7 6 7 6 7 7 7 7 7 6 7 7 6 7 6 6 6 7 6 6 6 6 6 6 6 5 5 5 4 4 4 4 4 5 3 4 3 3 3 3 4 4 3 4 5 4 5 4 4 4 4 4 5 4 4 4 4 2 5 5 5 5 4 1 3 4 5 6 7 6 7 6 6 4 5 6 6
10 9 9 8 8 8 8 8 7 7 8 7 8 8 7 8 7 7 8 7 6 7 7 7 6 7 7 7 6 6 6 7 6 5 6 6 6 5 5 5 5 5 4 5 5 3 3 3 4 3 2 3 4 4 5 5 5 5 6 4 4 3 3 4 2 2 4 5 4 3 2 2 2 5 6 4 4 4 4 5 5 5 4 5 6
9 9 9 9 9 8 9 8 8 8 9 7 8 9 8 7 7 8 8 7 7 7 7 8 6 7 8 8 7 6 6 6 5 6 7 7 6 6 5 5 6 5 6 5 5 4 4 4 4 4 4 4 4 4 4 3 4 5 5 4 4 6 4 5 6 5 3 3 4 2 3 3 3 4 3 4 4 4 3 4 4 4 5 6 6
10 10 10 10 9 8 9 9 9 10 10 8 8 8 8 8 6 7 8 8 8 7 7 7 7 7 9 9 8 7 7 7 6 6 6 6 6 6 6 5 5 6 6 6 6 5 5 5 6 4 4 4 4 4 4 4 6 4 5 5 4 6 4 5 6 4 4 6 5 4 2 2 2 4 2 3 5 4 3 3 3 4 5 5 6
11 11 10 11 10 10 9 10 10 11 10 9 8 8 8 8 7 7 7 9 8 8 8 7 8 7 8 9 9 6 5 6 7 7 6 6 6 6 6 6 6 6 6 6 6 5 5 5 6 5 4 5 6 4 2 1 2 3 5 6 6 4 5 5 4 5 6 7 5 4 2 2 4 3 4 1 3 5 5 4 3 3 5 7 7
10 10 11 12 11 11 10 11 11 10 10 9 8 7 7 8 8 9 8 9 9 8 8 9 8 7 1 9 14 11 10 11 12 11 7 4 6 6 7 6 6 6 6 7 6 6 6 6 5 5 4 5 4 5 2 2 4 3 4 6 6 6 6 6 6 6 6 3 2 3 3 3 1 4 5 3 3 2 3 6 7 3 4 5 8
12 5 4 9 10 10 10 10 10 10 9 9 9 9 8 8 8 9 8 9 9 9 4 2 3 7 8 9 9 7 7 8 7 3 4 10 9 7 7 7 7 6 5 6 6 6 6 6 5 4 5 5 6 4 4 6 2 3 5 4 4 4 3 2 1 1 1 1 2 3 1 2 4 2 3 4 5 4 1 1 6 8 8 5 4
7 7 9 13 10 5 6 6 5 7 8 8 7 6 7 8 7 6 8 9 8 6 7 8 6 5 6 7 8 6 6 5 5 8 8 9 9 11 8 7 5 5 4 4 5 5 5 3 1 3 6 9 11 8 8 8 6 6 7 4 5 4 4 2 2 1 1 1 4 2 2 4 4 3 6 4 4 6 4 2 4 6 6 8 8
9 7 8 8 4 6 11 5 2 5 4 3 3 2 1 1 2 4 6 7 4 7 6 7 7 7 6 5 6 6 6 5 4 7 8 7 8 8 7 6 6 6 6 6 6 5 5 3 4 7 13 17 14 14 13 13 11 8 8 5 6 4 3 3 3 3 2 4 5 4 5 6 6 4 4 4 4 4 5 5 6 7 6 7 6
4 7 8 7 6 5 3 8 13 13 8 5 3 3 3 3 3 2 3 4 5 4 5 6 6 6 7 7 7 6 6 6 10 10 10 12 8 7 11 9 7 6 7 7 7 6 5 5 8 10 8 5 4 9 11 11 11 12 13 9 8 6 4 4 4 3 2 3 3 3 3 5 6 4 4 6 4 4 4 4 5 5 5 7 10
8 7 5 6 4 4 5 7 6 7 10 12 11 9 4 5 4 3 2 5 4 4 4 4 5 6 6 7 7 6 6 7 9 5 6 7 9 9 6 7 6 5 6 7 7 6 6 4 1 1 3 2 3 4 3 3 3 8 11 10 10 9 6 5 4 2 2 3 3 5 3 5 5 4 5 3 5 4 4 4 4 4 6 6 6
6 7 6 6 4 4 6 7 4 2 5 7 6 6 7 3 2 2 2 1 3 5 4 5 5 4 5 6 6 4 5 5 3 2 5 6 8 9 10 9 5 6 1 4 6 5 4 2 2 2 2 5 4 2 2 2 6 4 2 3 3 3 3 3 3 3 3 3 4 4 5 3 3 4 2 2 2 4 5 6 4 4 4 6 6
6 8 8 5 3 3 6 10 6 4 4 5 4 1 2 4 3 2 2 1 1 3 4 4 4 4 5 6 4 4 4 3 3 3 4 6 7 7 6 5 7 7 6 8 5 4 4 5 5 3 0 2 1 1 2 3 3 2 1 0 1 2 3 5 5 5 4 4 4 4 3 3 4 3 5 2 3 5 5 6 5 4 6 7 7
5 7 8 5 4 4 5 6 5 3 4 4 3 3 1 4 5 3 1 2 2 3 5 5 3 3 3 4 5 4 2 2 1 3 5 6 6 6 3 2 5 6 5 5 5 5 5 6 5 5 3 1 0 1 1 2 2 3 2 1 1 2 2 2 1 1 2 3 4 5 5 4 5 6 6 5 4 5 4 5 4 4 6 5 5
5 6 7 4 3 2 4 4 5 6 6 3 2 4 3 3 2 5 2 1 0 2 3 3 3 2 2 4 4 4 2 4 4 4 5 6 6 4 6 6 7 2 3 4 4 3 3 5 5 4 3 2 2 3 1 1 3 2 2 1 1 2 3 3 4 5 3 1 1 2 2 3 5 7 7 6 6 5 3 2 3 2 2 2 4
4 4 5 5 3 1 1 3 5 6 7 5 2 4 1 4 7 4 2 1 1 4 2 1 1 2 3 3 5 3 2 5 6 6 5 5 2 2 5 6 7 5 4 4 4 4 4 5 5 5 4 2 3 4 3 3 3 3 2 1 0 1 1 2 2 3 3 2 4 4 6 7 8 10 11 11 5 3 1 2 5 4 5 4 3
4 3 3 2 3 3 2 2 4 4 5 7 5 5 0 2 2 2 3 3 3 4 4 2 1 1 4 5 3 4 2 5 9 9 8 6 3 1 1 6 6 3 3 2 2 3 4 9 6 5 4 3 2 4 5 1 3 2 2 1 1 2 1 4 3 3 4 5 5 6 6 6 7 6 6 6 5 3 2 5 3 3 3 2 3
2 2 2 1 0 1 3 3 3 4 5 5 4 3 2 1 1 4 5 4 2 1 1 1 2 2 4 4 7 6 3 5 11 12 11 8 2 2 3 4 4 5 5 4 2 4 4 6 8 6 5 4 5 5 6 4 3 2 1 1 2 2 0 3 4 5 6 6 4 6 5 7 5 3 3 7 6 1 1 2 3 2 3 3 4
2 1 2 3 3 2 0 2 2 3 4 3 2 2 1 0 2 1 3 4 5 4 5 5 3 5 5 4 4 5 5 6 8 12 12 12 11 1 2 5 6 6 5 5 5 3 4 4 4 6 7 5 5 5 5 4 2 2 1 1 1 2 1 3 2 2 3 3 5 4 4 4 3 3 4 4 5 4 4 4 3 2 3 3 4
5 3 4 4 5 5 3 1 1 2 1 2 2 2 1 0 1 3 3 3 2 4 6 6 7 5 4 4 4 4 4 4 5 10 11 12 13 9 2 3 2 0 3 4 4 4 3 2 3 3 3 3 3 2 2 2 1 1 2 2 1 1 1 2 3 4 2 3 3 4 3 3 3 3 4 4 5 5 6 5 4 3 4 5 5
4 5 6 5 4 5 5 4 2 3 3 3 3 2 1 2 3 3 2 3 6 7 7 7 7 6 5 5 5 4 5 6 3 8 10 12 13 15 8 5 3 1 4 4 4 5 5 4 2 2 1 0 1 2 3 1 2 2 3 3 3 1 1 2 3 2 2 2 3 2 4 4 5 5 5 6 6 6 5 5 5 4 3 3 3
2 3 4 5 4 4 5 7 7 5 5 6 6 5 5 5 4 4 4 4 5 6 6 6 6 6 4 4 4 5 5 5 7 5 8 10 10 9 9 8 10 6 7 7 6 5 3 4 2 1 3 5 6 5 5 3 3 4 3 1 2 3 4 2 2 2 2 2 2 4 5 5 5 6 6 6 6 5 5 5 5 6 6 5 4
4 5 4 4 5 5 6 6 6 6 6 7 7 7 6 5 5 4 3 3 3 4 4 5 5 5 6 5 4 4 3 3 5 7 6 7 10 12 10 10 8 5 6 6 6 6 6 6 7 11 11 10 9 7 6 4 4 6 2 3 3 4 2 1 0 1 1 3 4 4 5 5 5 6 6 5 5 4 4 4 5 5 5 6 6
3 4 4 4 5 6 6 6 6 6 6 6 6 5 5 5 6 5 5 4 3 4 4 4 5 5 5 5 4 3 3 4 4 7 12 10 11 12 11 12 10 8 5 5 4 4 4 9 13 13 12 12 10 8 5 5 8 8 6 5 4 2 1 1 1 0 5 4 4 5 5 4 3 2 3 3 3 5 5 6 5 5 5 5 5
3 3 3 3 4 6 7 6 6 6 6 6 6 4 4 5 6 5 6 6 6 5 3 4 4 4 4 4 4 3 3 4 4 5 6 8 7 10 10 11 12 11 8 5 6 5 5 9 13 12 10 8 5 3 3 4 6 7 6 5 1 3 3 3 2 5 5 5 5 5 4 3 3 3 3 4 6 6 5 5 5 7 6 6 7
4 4 4 3 4 3 6 4 5 5 5 5 5 5 4 5 5 5 5 5 5 5 5 4 3 2 3 4 3 3 4 4 5 5 5 6 6 6 6 6 10 10 8 7 7 4 4 6 5 9 10 13 10 8 6 5 2 2 1 3 4 3 3 5 5 6 5 5 4 4 3 3 2 5 5 5 5 5 4 4 5 5 6 6 6
4 4 4 3 4 4 4 7 6 5 5 5 5 5 5 5 6 5 4 3 5 6 5 6 5 4 4 3 3 3 4 4 4 5 5 5 5 5 5 6 6 5 5 5 6 5 5 6 7 4 4 3 3 1 3 3 3 4 3 3 5 5 7 9 8 6 5 5 4 3 3 3 4 4 5 5 5 5 5 4 5 5 5 5 6
5 5 4 4 3 4 5 4 3 4 4 5 5 5 4 5 5 4 3 2 2 4 6 5 4 3 4 3 4 4 4 4 3 4 4 6 5 4 5 5 5 4 5 8 6 5 4 5 6 6 6 5 5 4 3 5 6 6 7 6 6 5 5 5 6 6 5 5 5 5 4 5 5 4 3 4 4 4 4 5 5 5 5 6 6
4 4 3 3 3 3 2 3 3 4 4 4 4 5 8 8 5 2 2 6 8 7 4 3 3 4 5 3 3 4 3 1 3 4 4 5 6 5 5 6 6 6 8 11 5 3 3 5 5 6 6 6 6 6 6 7 8 7 5 5 5 5 6 6 6 5 4 4 4 4 3 2 2 2 3 3 4 4 4 4 4 4 6 5 5
2 2 2 2 2 2 2 3 2 3 3 3 3 4 3 5 8 9 8 7 8 9 9 6 7 6 5 4 3 5 3 3 3 3 3 4 6 6 7 7 6 7 7 6 2 4 4 6 6 6 6 6 7 7 6 7 6 6 5 5 5 5 5 6 5 3 3 4 3 2 2 2 3 3 4 3 2 3 4 3 4 5 5 4 5
3 1 2 2 3 3 3 2 3 3 2 2 2 4 3 3 2 5 6 6 5 7 8 7 7 8 9 6 3 2 4 5 6 7 7 7 7 9 9 8 6 6 6 4 2 5 5 5 5 6 6 7 7 7 7 6 6 6 5 6 6 5 5 4 3 3 3 3 3 3 4 4 4 3 3 4 3 4 5 6 5 4 4 3 3
3 2 2 2 2 3 3 3 3 4 3 2 2 2 2 2 3 1 1 5 7 6 6 6 7 6 7 7 5 4 3 2 5 7 7 8 8 9 9 9 7 5 3 1 4 4 5 5 6 6 7 7 6 7 7 7 6 6 6 6 5 3 3 1 1 3 3 4 5 6 5 6 6 6 6 5 5 6 5 5 5 4 3 4 3
1 1 1 2 4 3 4 3 3 2 2 2 2 2 2 3 3 3 2 0 2 3 3 5 6 4 5 4 3 4 4 4 5 7 8 7 7 7 5 5 1 1 2 3 5 6 5 6 6 6 6 6 6 7 7 7 6 6 6 6 5 5 5 4 6 6 5 6 6 6 6 7 7 7 6 6 5 5 5 4 5 5 5 5 5
1 2 3 4 3 2 2 2 2 2 1 1 0 1 0 1 1 4 3 4 3 2 1 2 4 6 3 5 7 8 7 7 8 8 9 6 6 7 3 7 9 8 7 6 6 6 6 6 6 6 6 7 6 6 6 6 6 7 6 6 6 6 7 7 6 6 6 6 6 6 6 6 6 5 4 5 5 5 5 5 5 5 5 5 5
0 1 1 2 3 2 2 2 2 2 1 0 1 2 2 1 0 1 3 4 4 3 2 2 0 3 4 5 5 5 7 7 6 7 7 8 9 9 10 7 7 7 7 7 6 6 6 6 6 6 6 6 6 6 6 6 6 5 5 5 6 5 5 6 6 5 6 7 6 6 6 6 6 5 5 5 5 5 5 6 5 6 6 6 6
2 1 2 2 3 3 1 1 0 0 1 0 1 1 2 1 1 1 1 2 3 3 4 3 1 0 2 2 2 2 2 3 4 5 7 8 9 9 7 7 6 6 7 6 6 6 7 7 6 6 6 6 6 5 6 6 5 5 5 5 5 6 6 6 6 6 7 7 7 7 6 6 6 6 6 6 6 5 5 5 5 5 5 7 7
3 4 4 3 3 2 1 0 1 2 1 1 1 1 3 2 0 1 1 0 3 5 5 4 3 2 2 1 4 3 3 4 7 7 9 9 8 7 6 6 6 6 6 6 6 6 6 5 6 6 5 5 6 5 5 5 5 5 5 5 6 6 9 8 8 7 7 7 7 6 6 6 6 5 5 5 5 4 4 4 5 5 4 5 5
1 3 5 5 3 3 2 0 0 1 1 2 2 2 1 0 2 2 3 4 4 4 5 4 4 3 1 0 2 3 4 4 5 5 6 6 6 6 6 6 6 6 6 6 6 6 6 6 5 5 6 6 5 5 5 5 5 5 5 6 6 6 7 6 6 6 6 6 6 5 5 5 5 5 4 5 5 5 4 5 5 5 5 5 5
1 1 3 4 1 0 0 1 0 0 0 0 1 1 2 2 1 2 3 5 5 4 4 5 4 3 1 1 2 3 1 1 3 5 5 6 6 6 6 6 6 6 6 5 6 5 6 6 6 6 6 6 6 6 5 5 5 6 6 6 6 7 7 6 6 6 6 6 5 5 5 5 5 4 4 5 5 5 5 5 5 5 5 5 5
1 1 2 1 2 1 1 1 0 0 0 1 1 2 3 2 2 3 3 4 5 5 5 4 4 2 1 2 4 2 2 5 4 5 6 6 6 6 6 6 5 6 5 5 5 5 5 5 5 5 5 5 5 5 5 5 5 6 6 6 6 6 6 7 6 6 6 6 6 6 6 6 6 6 6 5 6 5 5 5 5 5 6 6 6
1 2 3 3 3 2 2 2 1 2 2 1 1 3 3 3 3 3 3 3 4 5 5 4 3 2 0 0 2 1 5 5 5 6 6 5 6 6 5 5 5 5 5 5 5 5 5 5 5 5 5 5 5 5 5 6 5 6 5 6 6 6 6 5 5 4 5 4 5 5 5 6 6 6 6 6 6 6 5 5 5 6 6 6 6
1 1 4 3 3 3 3 2 1 0 1 1 1 4 3 3 3 2 3 3 3 4 5 4 3 1 1 1 3 5 5 5 6 6 6 6 5 5 5 5 5 5 5 5 5 4 5 5 4 4 4 5 4 4 5 5 5 5 5 6 6 6 5 5 4 5 5 5 5 4 4 4 5 5 5 5 5 5 5 6 6 6 5 6 5
4 2 2 2 2 2 1 1 1 3 3 4 4 3 2 2 2 2 3 3 4 3 3 3 2 1 1 3 6 6 5 5 5 5 5 5 5 5 5 4 4 5 5 5 4 4 4 5 5 5 5 5 5 5 5 5 5 5 5 5 5 5 5 4 4 4 4 4 3 3 4 4 5 5 5 5 5 5 5 5 5 5 5 5 5
6 5 2 1 1 1 1 0 0 2 3 3 2 1 1 2 2 3 5 6 5 5 5 4 3 3 4 5 5 5 5 5 5 5 5 5 5 5 4 4 5 5 5 5 4 4 5 4 5 5 5 6 5 5 5 4 4 4 4 5 5 5 4 3 3 3 3 4 4 4 5 5 5 5 5 5 5 5 5 5 5 6 6 5 5
5 5 4 2 1 1 1 3 4 2 3 4 4 3 2 2 2 4 5 5 5 5 4 3 3 3 4 5 5 5 6 6 5 5 4 5 5 5 4 4 4 5 4 4 4 5 5 4 4 5 5 5 5 4 4 4 4 4 4 4 5 5 3 3 3 3 3 3 4 4 4 4 5 5 7 6 5 5 5 6 6 6 6 6 7
4 2 2 2 2 2 2 0 1 2 2 4 5 5 5 5 5 4 3 4 4 3 4 5 6 6 5 5 6 5 5 5 5 5 5 4 4 4 4 4 5 5 4 4 4 5 5 5 4 4 5 4 5 4 3 3 4 3 4 4 4 3 2 2 2 3 3 3 3 3 4 4 5 5 7 6 5 6 6 6 6 7 7 7 7
4 4 4 3 2 2 1 3 1 3 1 2 3 4 5 5 6 6 5 5 6 5 6 5 6 6 6 6 5 5 5 5 5 5 5 4 3 3 3 4 4 4 4 4 4 4 4 4 4 4 4 4 4 4 3 3 3 3 3 3 2 2 2 2 1 1 2 3 3 3 4 5 5 5 5 6 5 6 6 6 7 7 7 7 7
5 5 3 1 1 1 2 3 4 3 1 0 1 3 3 4 5 6 6 6 6 5 6 6 6 6 6 6 5 5 5 4 5 5 5 5 4 4 4 4 3 3 4 4 4 3 3 4 3 3 3 3 4 5 4 3 3 2 2 2 2 2 1 2 1 2 3 4 3 4 4 4 5 5 5 6 6 5 6 6 6 7 7 7 7
3 3 3 3 1 1 1 3 5 3 2 3 3 4 4 4 4 4 4 5 6 6 6 6 6 5 6 6 5 5 5 5 4 4 4 4 4 3 3 3 3 3 3 2 3 4 4 3 3 2 3 3 3 4 3 4 3 3 2 1 1 1 2 3 3 3 4 4 4 4 4 5 5 5 5 5 6 6 7 7 7 6 6 6 6
3 3 2 3 3 3 4 4 4 4 5 5 5 5 5 6 6 6 6 6 6 6 5 5 6 6 6 6 5 5 5 4 4 4 4 3 3 3 3 3 3 3 3 3 4 5 4 2 2 3 3 3 4 3 4 4 3 3 3 4 4 2 2 3 3 5 6 6 4 5 5 6 6 7 7 6 5 5 7 7 7 6 6 6 7
Wind_Direction
184 191 191 196 190 191 194 195 195 192 193 192 193 206 210 207 205 207 206 210 203 203 207 205 202 204 201 199 202 203 204 210 206 200 200 217 222 217 216 210 214 236 242 266 260 255 227 231 238 242 199 194 214 210 209 213 191 217 195 172 192 198 178 175 218 271 298 268 264 267 296 332 317 327 335 325 329 334 335 327 327 328 316 318 321
185 187 192 195 195 191 194 193 196 196 200 202 207 203 211 211 207 203 203 212 199 205 204 207 201 202 205 205 206 205 205 206 206 194 202 211 221 218 221 212 216 229 229 250 263 251 232 232 252 250 216 204 206 188 196 201 205 216 223 205 225 217 205 182 225 235 280 319 321 310 298 334 300 305 321 325 321 329 325 322 324 315 315 327 326
182 181 187 192 197 194 192 193 195 201 205 207 214 212 208 211 207 204 207 207 205 204 200 200 196 198 205 205 203 204 207 211 207 198 203 205 209 217 210 203 207 220 224 235 240 243 253 241 245 244 231 225 228 204 199 202 202 219 239 208 228 226 190 201 175 245 269 276 258 279 281 313 272 289 310 314 290 282 296 307 314 318 326 326 323
179 179 184 191 192 192 194 194 199 203 209 208 212 214 209 204 202 207 208 203 203 206 201 202 196 198 204 209 206 204 209 215 212 206 206 205 208 216 215 211 214 220 223 231 234 231 233 235 242 235 236 239 251 242 235 229 209 222 240 243 219 248 221 187 210 216 237 256 289 249 271 310 296 288 294 297 295 308 288 291 311 322 325 324 321
179 181 183 188 189 190 194 196 200 206 211 210 212 214 214 212 200 204 206 209 206 203 206 204 201 199 204 208 211 211 212 215 214 214 213 210 210 214 218 222 228 228 227 226 229 230 238 233 242 236 226 231 252 251 240 214 230 230 245 246 230 242 237 209 220 212 236 257 277 273 268 289 252 291 304 320 321 315 312 315 314 312 314 310 315
182 181 184 189 193 193 194 197 200 203 208 213 214 215 219 219 217 211 205 206 205 204 205 206 203 205 207 207 207 211 220 219 216 211 209 213 217 219 219 221 227 231 233 235 236 231 232 235 241 239 237 224 238 231 202 249 333 293 274 264 246 241 235 224 207 203 210 238 228 283 331 312 331 302 295 300 306 315 319 314 328 325 326 324 324
183 184 188 192 192 196 195 197 197 200 204 210 215 216 215 221 218 217 212 208 205 204 208 208 207 209 210 34 35 23 23 8 1 337 320 267 215 219 227 225 226 225 230 235 238 232 228 230 236 233 233 227 226 227 167 178 200 224 237 249 220 197 193 192 182 176 187 217 268 232 262 289 252 295 306 325 297 256 290 329 325 319 311 311 320
4 336 231 200 195 198 200 195 195 198 200 205 211 215 221 225 217 214 211 214 210 210 181 73 50 75 114 151 172 174 174 175 167 201 298 311 306 244 223 224 225 225 240 242 239 238 235 238 245 253 246 241 236 230 177 235 211 249 251 245 223 177 186 194 174 198 256 228 226 282 284 274 325 292 300 340 334 335 315 293 306 321 324 314 307
114 93 25 350 334 283 214 190 191 196 200 204 212 224 230 232 229 213 209 210 209 162 144 156 146 124 126 150 167 172 166 191 203 198 186 202 258 273 232 224 208 202 226 242 243 241 240 228 132 225 248 245 238 209 199 203 207 231 254 232 227 199 211 194 195 194 253 244 284 261 302 308 285 303 315 310 308 290 288 345 300 306 307 316 316
143 151 159 170 193 346 342 337 182 138 129 148 153 139 130 295 258 198 210 215 186 174 150 151 156 154 144 133 148 153 166 173 220 231 225 231 211 244 271 231 193 203 218 235 251 247 239 186 259 261 263 257 236 208 204 201 206 205 226 217 227 208 198 205 213 224 237 273 267 269 295 288 283 281 274 273 289 297 317 328 318 311 319 305 297
160 172 175 171 141 120 71 16 354 358 5 33 43 73 59 51 42 51 89 106 134 160 158 146 157 166 154 155 162 172 172 176 183 198 214 238 248 248 240 231 210 204 204 214 232 236 246 204 205 238 255 304 287 225 214 218 219 226 235 225 210 199 197 208 229 197 199 235 256 255 248 272 281 272 270 284 288 288 285 298 295 310 320 325 321
161 166 101 81 58 65 92 86 59 38 31 14 359 346 11 58 47 23 63 110 118 128 143 157 160 170 168 171 172 175 178 165 178 208 248 256 248 238 246 255 236 211 212 212 219 225 232 251 330 87 81 66 46 24 20 7 250 230 229 226 220 218 194 183 200 181 189 219 258 252 237 254 269 284 281 281 289 300 288 293 290 300 306 306 301
133 102 102 104 113 128 103 74 67 108 99 87 53 7 333 10 39 47 50 71 121 130 146 149 166 172 172 173 178 170 128 63 32 316 289 277 254 227 216 202 172 246 287 262 229 224 230 208 107 56 37 56 43 13 15 2 358 29 126 160 187 205 222 238 195 186 166 191 220 253 228 233 255 264 226 257 280 293 300 303 299 295 288 291 287
103 97 94 91 83 73 104 122 158 190 124 95 87 95 319 345 12 31 43 20 104 136 144 151 163 176 181 182 154 106 108 34 4 323 290 277 272 254 224 203 170 185 191 227 223 202 187 151 144 119 39 59 49 17 30 21 8 19 11 353 315 280 228 213 229 234 211 210 206 232 253 180 241 261 276 267 279 283 298 293 296 302 299 285 289
89 93 91 89 79 67 94 125 139 111 96 122 151 238 231 27 3 349 342 194 186 167 161 155 156 168 174 154 139 128 104 41 336 309 299 294 302 290 298 272 172 179 191 180 182 180 167 152 144 145 144 120 108 31 74 50 58 51 44 21 336 301 316 313 301 240 202 215 216 229 261 255 247 257 265 276 268 268 260 270 284 277 277 288 292
71 78 99 101 90 78 92 95 84 71 65 103 207 234 213 113 342 291 236 260 304 62 51 58 71 76 120 140 144 119 81 22 352 333 323 336 321 73 59 0 319 282 139 147 166 159 140 136 136 138 143 117 28 8 7 146 108 111 93 31 6 0 29 71 90 63 53 71 216 229 253 293 303 289 285 292 296 286 300 291 260 248 281 317 313
38 38 81 113 124 140 101 88 100 106 113 125 202 258 335 120 204 223 191 217 38 31 40 51 144 171 150 134 106 85 32 6 4 351 349 348 320 109 151 190 216 201 170 161 151 147 138 142 141 140 135 116 36 13 8 126 116 125 140 113 311 342 358 353 1 44 19 319 277 256 251 273 296 294 301 307 293 265 242 18 359 0 12 345 317
16 19 17 50 97 108 82 76 96 111 131 147 190 235 70 172 180 144 145 109 104 182 185 156 39 14 61 81 111 109 71 10 11 2 2 8 306 244 219 175 182 184 152 121 116 133 152 141 132 128 128 112 52 47 16 78 128 134 136 142 242 270 307 358 348 348 340 317 307 308 293 273 279 308 342 11 67 139 118 45 325 24 345 339 305
46 11 351 340 13 89 119 119 114 123 129 153 183 210 205 185 132 108 134 139 199 219 212 51 352 34 76 95 103 99 77 32 19 5 3 2 1 238 227 185 178 178 154 128 88 92 92 112 123 126 128 121 89 60 43 65 95 87 112 135 228 261 54 344 356 346 348 349 342 346 340 357 354 1 51 62 71 110 34 357 339 39 339 320 315
30 8 330 330 330 342 32 116 123 117 121 128 160 218 244 350 358 93 134 165 197 172 166 182 165 59 41 52 42 47 56 37 26 21 13 6 348 294 193 178 175 171 168 156 142 109 111 107 98 93 98 98 88 82 66 50 111 98 98 124 155 245 28 349 321 322 322 314 301 313 311 319 6 45 28 25 20 15 9 356 345 352 346 332 338
23 33 42 20 10 2 5 16 58 80 118 154 168 164 179 174 127 106 131 138 121 87 89 80 86 88 68 56 59 62 72 66 47 40 33 27 16 4 41 37 5 94 160 159 156 142 123 89 74 94 102 116 113 86 72 11 353 172 160 178 191 110 347 308 295 320 310 304 317 318 356 26 29 27 35 19 17 7 6 6 4 17 28 26 8
57 46 37 21 16 20 22 26 40 48 37 48 61 66 31 63 74 81 53 60 84 88 85 81 78 69 54 38 45 37 49 61 50 48 43 38 37 20 7 19 350 359 48 48 30 27 23 17 350 45 54 308 283 281 277 293 292 264 230 201 95 104 236 237 260 278 299 319 328 14 31 30 30 26 21 19 16 9 10 9 12 14 24 37 22
102 85 54 30 16 22 30 41 42 36 38 41 44 38 37 46 44 48 69 69 67 75 85 93 88 82 75 50 32 24 14 30 32 47 48 41 24 25 1 0 19 45 65 66 59 58 49 27 358 64 283 277 268 260 256 252 272 241 248 92 162 204 237 225 255 312 332 334 42 53 34 30 31 24 18 14 6 6 6 3 359 3 358 353 352
75 73 59 46 35 39 42 48 48 51 54 61 59 52 44 41 35 28 56 81 91 92 89 94 97 99 95 83 63 55 37 22 20 19 0 358 1 0 351 341 354 49 50 65 60 48 26 354 329 318 303 281 271 262 252 228 245 270 258 206 196 214 207 231 2 307 307 74 69 55 44 28 34 26 10 2 7 359 356 2 353 352 356 346 346
30 63 68 73 78 73 62 48 47 51 54 67 72 63 60 52 55 23 37 39 85 117 110 97 103 102 94 91 90 71 31 37 19 14 18 28 26 17 14 12 35 34 57 39 53 65 25 331 305 296 288 282 273 263 254 242 236 245 237 214 191 123 159 175 232 156 85 82 77 69 52 38 37 16 358 18 18 22 12 359 349 357 359 353 347
43 51 46 58 84 96 82 70 61 59 58 57 60 43 54 65 71 49 44 42 41 51 91 117 108 106 107 105 87 69 44 28 20 11 14 12 18 10 9 17 21 35 50 49 18 8 31 288 280 293 301 283 269 252 240 227 208 207 195 187 154 140 175 180 147 102 93 82 74 67 52 29 29 24 40 33 37 20 2 358 358 2 358 360 360
43 46 36 36 30 58 91 97 86 67 61 63 72 75 60 58 64 58 57 55 45 48 53 74 87 84 95 82 78 58 43 27 14 7 10 10 10 3 9 11 11 17 21 6 356 349 284 262 276 265 246 259 257 245 246 253 243 243 217 208 175 171 119 102 114 106 101 96 80 66 49 33 31 38 29 27 21 8 1 4 14 2 359 355 17
52 49 43 47 60 49 55 70 64 47 34 43 48 42 49 71 67 48 53 65 85 67 55 60 59 64 72 66 59 53 38 31 26 10 2 5 1 357 6 14 16 1 0 350 335 311 310 302 293 295 296 308 290 262 208 171 131 130 141 118 113 118 115 112 98 88 91 101 97 83 49 37 48 32 27 22 14 5 3 18 25 9 11 8 26
42 36 32 63 65 83 84 89 79 80 67 53 45 35 23 28 71 77 1 334 353 100 108 97 79 78 79 69 70 44 30 36 22 17 17 10 5 352 4 8 352 345 335 321 312 303 315 335 351 350 360 353 358 352 354 92 103 111 108 104 99 96 94 91 94 93 97 85 78 75 60 48 37 19 22 19 8 359 0 27 28 30 13 31 32
64 54 50 56 62 67 73 88 106 97 96 93 80 60 50 60 28 56 92 62 65 35 19 105 106 92 80 27 2 63 59 34 43 19 350 343 350 346 327 308 306 308 311 306 269 303 332 347 353 350 352 8 23 29 41 88 99 96 83 89 92 88 83 86 92 101 98 99 105 92 89 92 54 16 32 27 1 4 6 47 27 28 39 26 28
78 58 72 83 93 84 82 78 83 122 134 136 116 97 60 20 40 40 48 43 42 55 60 47 46 69 110 127 85 87 68 36 7 303 332 344 330 309 296 296 304 307 312 329 24 10 356 2 353 355 358 14 35 35 46 61 76 84 79 63 58 68 78 89 104 110 100 96 89 104 111 80 44 28 27 21 18 360 0 20 33 35 40 34 31
102 91 116 129 123 113 86 85 70 74 105 129 127 121 128 97 38 37 47 53 63 63 59 58 49 49 50 53 68 25 18 2 338 335 332 325 302 293 292 299 292 276 300 282 334 9 12 9 6 8 11 32 33 39 44 55 61 71 72 70 61 62 79 84 87 90 96 85 70 50 39 31 28 27 31 15 9 11 11 24 25 26 18 14 7
119 110 78 59 54 97 102 95 77 66 52 62 119 150 144 168 149 153 137 120 103 75 66 68 66 60 63 53 53 89 65 359 334 318 305 282 278 282 289 288 280 259 265 19 38 20 17 36 48 46 44 43 35 40 41 43 47 51 61 79 84 72 79 94 94 73 59 56 59 51 45 44 37 38 30 23 24 26 30 35 12 12 7 3 341
152 131 64 76 111 98 92 86 81 71 79 64 64 135 197 201 182 182 174 7 119 80 32 28 39 72 95 70 53 22 14 16 352 337 322 305 272 279 299 310 16 309 34 47 80 59 52 59 55 53 48 51 46 48 47 41 40 39 39 41 36 26 20 17 43 44 48 48 55 50 51 49 48 50 45 41 34 39 37 21 10 10 359 349 342
258 253 146 122 99 114 112 105 95 84 61 50 39 1 344 273 212 172 182 176 180 199 132 356 23 48 32 1 353 351 355 357 360 357 1 2 358 322 343 30 33 22 45 27 43 57 57 56 57 49 50 53 46 50 53 49 48 46 43 44 42 39 41 46 49 49 50 50 52 49 49 50 46 50 56 51 34 30 18 14 7 5 0 350 351
262 80 30 110 140 169 153 152 148 145 169 248 305 324 326 308 68 155 179 181 171 175 114 106 299 338 347 315 296 317 337 341 350 6 5 13 11 31 52 35 46 44 46 35 37 41 50 50 50 48 46 53 48 50 47 51 49 52 48 49 51 49 49 48 45 48 47 50 48 46 46 42 34 35 37 47 40 26 19 21 14 9 7 8 3
174 168 160 151 150 156 175 184 166 198 209 295 351 334 311 298 62 55 115 153 164 140 125 123 113 41 341 323 326 338 352 342 353 16 40 28 31 52 67 63 69 58 50 44 43 46 47 39 38 45 44 47 46 43 45 46 42 43 47 46 46 53 49 49 46 45 48 48 42 40 40 36 28 28 33 37 25 22 22 26 19 14 11 10 7
187 184 196 195 144 127 104 353 286 299 341 320 350 354 320 310 343 39 40 44 88 120 129 143 148 136 93 307 355 2 359 18 35 35 26 33 39 50 55 63 61 62 53 44 50 50 51 41 39 43 40 44 49 42 44 41 35 39 40 43 46 51 54 50 46 46 50 50 44 37 37 34 27 26 28 39 29 17 17 14 11 4 0 2 3
233 222 202 203 179 148 135 101 318 277 286 288 302 286 264 93 72 62 63 66 85 97 118 122 113 114 124 342 0 359 28 24 31 38 53 55 54 56 64 61 62 61 57 50 46 50 49 43 34 37 35 36 36 35 36 36 34 37 39 56 59 49 45 43 46 45 50 48 44 37 35 31 23 19 20 27 29 12 6 0 359 358 353 348 346
224 283 311 293 302 208 133 165 215 43 308 119 121 83 80 82 68 67 67 92 101 101 111 115 119 122 178 14 7 22 70 31 52 79 74 63 65 60 62 63 60 60 58 51 45 43 47 42 36 37 35 33 32 29 24 30 35 44 48 55 57 52 43 38 38 38 37 37 37 32 26 22 23 11 13 27 24 12 3 360 353 344 338 335 329
225 229 250 283 283 300 271 228 156 156 43 162 119 87 93 92 90 82 80 94 112 117 118 122 132 170 49 31 11 340 100 90 88 73 73 82 78 73 65 62 60 58 52 54 48 46 48 48 41 40 39 35 32 35 33 41 52 57 58 58 59 60 54 47 41 36 30 30 27 24 23 20 20 12 8 9 6 359 355 350 343 343 340 337 333
329 254 242 228 243 231 233 254 244 253 205 175 106 107 97 91 80 73 70 86 123 128 129 141 165 184 110 95 334 113 98 86 82 81 82 82 81 80 79 74 66 66 63 56 51 54 51 51 45 39 41 37 35 37 49 56 60 65 66 66 64 64 60 51 43 37 36 30 28 24 24 19 14 7 355 350 348 344 335 335 328 328 324 322 322
57 302 257 243 205 215 230 273 302 87 97 91 116 108 102 94 85 82 70 81 114 139 147 154 170 173 205 217 44 74 88 91 92 91 89 87 84 80 78 76 72 69 67 63 55 57 56 50 40 29 31 34 44 61 67 68 71 74 72 73 68 61 57 47 36 30 19 22 18 15 9 4 357 343 328 334 324 320 314 317 314 313 311 312 306
190 221 247 226 236 278 328 39 134 134 140 142 129 125 111 106 98 86 92 79 77 85 114 134 141 160 10 27 66 83 87 91 90 91 92 88 85 82 77 75 73 68 61 57 52 52 56 49 38 29 33 46 56 61 62 55 62 72 75 77 76 71 54 44 31 15 9 2 5 5 345 353 348 336 326 324 319 313 313 310 312 306 305 294 293
183 177 194 183 134 89 67 1 30 147 148 110 93 103 119 127 105 81 77 85 92 94 92 92 95 92 90 89 87 87 83 82 87 90 90 90 89 81 79 75 73 69 64 54 45 46 45 43 42 39 43 56 71 73 67 64 61 70 77 89 91 82 65 41 10 353 350 8 5 2 350 346 336 323 311 308 317 315 309 305 305 309 305 299 294
176 189 211 199 106 91 227 259 257 223 142 136 125 116 100 95 103 113 115 115 113 111 110 111 105 89 85 84 81 82 85 90 90 94 92 87 87 87 85 84 78 75 69 60 46 41 38 38 45 46 47 67 86 82 73 72 72 71 71 80 89 91 71 31 356 3 4 9 360 353 339 329 315 311 317 317 313 309 304 300 304 301 300 301 295
83 87 91 83 96 67 32 351 244 275 181 151 145 130 115 105 103 107 115 117 107 91 83 79 84 92 93 90 91 91 89 87 86 80 87 92 93 95 92 85 79 73 68 62 55 46 39 34 39 51 49 64 99 99 90 79 75 74 72 69 71 68 57 40 23 358 342 353 346 329 314 306 301 302 311 313 307 306 305 302 302 305 307 302 299
106 112 125 135 139 120 104 60 107 167 171 123 126 123 127 122 114 110 102 96 94 95 96 92 90 92 94 90 91 92 92 90 87 88 84 83 80 77 75 76 74 71 65 57 51 53 48 36 30 37 43 51 99 115 101 97 85 78 64 68 62 75 51 27 348 339 335 324 321 304 294 291 293 296 300 302 298 299 301 303 308 308 303 310 313
123 105 88 84 32 81 107 112 107 114 130 101 146 147 135 121 116 116 118 117 116 111 110 105 100 93 91 94 92 91 91 88 85 81 79 79 79 77 78 79 75 67 62 56 57 53 55 45 35 31 29 49 93 135 140 129 119 109 98 67 56 66 2 354 338 327 323 320 302 294 288 283 288 293 294 299 298 298 296 295 299 305 310 313 319
74 88 93 72 65 350 98 109 110 113 113 111 105 85 82 84 80 80 85 83 82 86 90 94 95 96 101 101 98 96 95 97 95 92 86 81 78 80 79 78 79 70 67 55 46 52 45 41 30 28 28 27 67 116 130 131 133 136 126 138 174 291 288 301 300 322 326 310 297 290 289 293 292 291 292 290 297 305 307 311 315 317 317 315 314
108 108 147 150 165 169 167 164 156 140 126 120 111 109 103 97 94 91 91 91 94 93 90 92 94 94 93 101 106 106 103 99 94 92 90 88 85 83 83 81 73 70 51 42 43 52 49 26 16 29 22 30 53 104 125 126 132 145 172 183 198 226 271 305 315 327 330 327 316 317 316 315 314 313 312 313 307 302 314 318 316 313 311 307 303